AO-07 1 07530U 74089B 25015.58481814 -.00000044 00000-0 12179-4 0 9998 2 07530 101.9915 18.3167 0012334 39.7510 78.1880 12.53685044295654 AO-27 1 22825U 93061C 25015.59685972 .00000209 00000-0 97235-4 0 9993 2 22825 98.7599 76.2862 0008579 170.7901 189.3440 14.30707518632986 FO-29 1 24278U 96046B 25015.61612772 .00000032 00000-0 69171-4 0 9996 2 24278 98.5890 288.4830 0350022 358.2481 1.7409 13.53231818403160 ISS 1 25544U 98067A 25015.71081605 -.00019999 00000-0 -34300-3 0 9993 2 25544 51.6408 342.3236 0001968 98.6252 317.1620 15.50030601491516 SO-50 1 27607U 02058C 25015.59971429 .00002518 00000-0 34039-3 0 9994 2 27607 64.5551 287.7801 0038698 12.2165 347.9869 14.80762322187753 AO-73 1 39444U 13066AE 25015.44590888 .00009632 00000-0 79537-3 0 9993 2 39444 97.7489 337.5527 0043806 149.1942 211.1865 14.98428835601826 IO-86 1 40931U 15052B 25014.40028706 .00001524 00000-0 11653-3 0 9990 2 40931 6.0024 282.7961 0013198 201.6771 158.2798 14.78508629502762 AO-91 1 43017U 17073E 25015.58401776 .00014360 00000-0 78853-3 0 9992 2 43017 97.5473 250.1679 0185768 300.2785 58.0169 15.00609677387437 PO-101 1 43678U 18084H 25015.54933318 .00003115 00000-0 27530-3 0 9998 2 43678 98.0887 186.3555 0009923 54.6555 305.5592 14.97091293338677 QO-100 1 43700U 18090A 25014.89424182 .00000143 00000-0 00000-0 0 9990 2 43700 0.0173 50.3013 0001332 243.3852 168.5831 1.00273461 22487 JO-97 1 43803U 18099AX 25015.13746265 .00012567 00000-0 66682-3 0 9994 2 43803 97.4906 75.8739 0007138 297.2823 62.7682 15.15463919334708 TO-108 1 44881U 19093C 25015.52069358 .00001582 00000-0 19154-3 0 9997 2 44881 97.8090 94.1610 0013797 353.3099 6.7929 14.84993417274545 RS-44 1 44909U 19096E 25015.37242700 .00000012 00000-0 12998-4 0 9995 2 44909 82.5242 323.7746 0216338 275.1898 82.4549 12.79737767236117 CSS 1 48274U 21035A 25015.62789346 .00013410 00000-0 17743-3 0 9998 2 48274 41.4638 228.8314 0003994 295.9054 64.1372 15.58068183212317 HO-113 1 50466U 21131B 25015.53483502 .00000961 00000-0 31641-3 0 9996 2 50466 98.5175 105.6222 0003879 197.6960 162.4094 14.40449996160565 TO-108 1 54684U 22167C 25015.60677817 .00161845 00000-0 14580-2 0 9995 2 54684 97.6118 176.2394 0002110 75.4343 284.7151 15.67677201117079 MO-122 1 60209U 24125G 25015.10286936 .00018131 00000-0 65067-3 0 9990 2 60209 97.2951 228.9208 0021099 300.9179 58.9986 15.28529143 29672 AO-123 1 61781U 24199AY 25015.61224563 .00010401 00000-0 41932-3 0 9998 2 61781 97.3764 245.2940 0017331 356.8353 3.2772 15.24875198 54768 NO-44 1 26931U 01043C 25015.61777352 .00000387 00000-0 17655-3 0 9995 2 26931 67.0507 142.6036 0006268 261.3958 98.6434 14.31582646216357 NO-103 1 44355U 19036S 22110.24609159 .09797144 -77191-5 93620-3 0 9997 2 44355 28.5075 82.7172 0016307 255.7935 104.0877 16.36779689157079 LEDSAT 1 49069U 21073D 25015.16051528 .00037831 00000-0 90597-3 0 9997 2 49069 97.4105 92.7652 0013102 247.4115 112.5746 15.41252585188908 IO-117 1 53106U 22080B 25013.55270770 -.00000003 00000-0 00000+0 0 9994 2 53106 70.1424 119.4379 0008206 58.9554 301.1910 6.42557525 58785 EOS-7 1 55562U 23019A 24363.45300977 .04873498 38898-5 83598-3 0 9991 2 55562 37.1672 46.7039 0002842 101.5126 258.5981 16.31915089106730 SONATE-2 1 59112U 24043Q 25015.32363573 .00018639 00000-0 67598-3 0 9991 2 59112 97.4959 144.5556 0011644 271.3087 88.6819 15.28332038 48093